Stevens Point, WI

7:34 PM CST on February 25, 2017 (GMT -0600)
Stevens Point Municipal

Weather History for KSTE - February, 2013

Change the Weather History Date:

Thursday, February 14, 2013

  Actual Average Record
Temperature  
Mean Temperature 22 °F -  
Max Temperature 29 °F 27 °F 50 °F (2002)
Min Temperature 15 °F 9 °F -27 °F (1951)
Degree Days  
Heating Degree Days 42    
Moisture  
Dew Point 22 °F    
Average Humidity 84    
Maximum Humidity 99    
Minimum Humidity 64    
Precipitation  
Precipitation 0.07 in - - ()
Sea Level Pressure  
Sea Level Pressure 29.73 in    
Wind  
Wind Speed 7 mph (NNW)    
Max Wind Speed 16 mph    
Max Gust Speed 23 mph    
Visibility 6 miles    
Events Snow    
Averages and records for this station are not official NWS values.
T = Trace of Precipitation, MM = Missing Value Source: NWS Daily Summary

Daily Weather History Graph

Daily Weather History Graph

Search for Another Location

Airport or City:

Trip Planner

Search our weather history database for the weather conditions in past years. The results will help you decide how hot, cold, wet, or windy it might be!

Date:

Astronomy

Feb. 14, 2013 Rise Set
Actual Time 6:59 AM CST 5:25 PM CST
Civil Twilight 6:29 AM CST 5:55 PM CST
Nautical Twilight 5:55 AM CST 6:30 PM CST
Astronomical Twilight 5:21 AM CST 7:03 PM CST
Moon 8:47 AM CST (2/14) 10:43 PM CST (2/14)
Length of Visible Light 11h 26m
Length of Day
10h 26m
Waxing Crescent, 22% of the Moon is Illuminated
Feb 14
Waxing Crescent
Feb 17
First Quarter
Feb 25
Full
Mar 4
Last Quarter
Mar 11
New

Hourly Weather History & Observations

Time (CST) Temp. Windchill Dew Point Humidity Pressure Visibility Wind Dir Wind Speed Gust Speed Precip Events Conditions
12:15 AM 28.4 °F 24.6 °F 26.2 °F 92% 29.61 in 2.5 mi SSE 3.5 mph - N/A   Overcast
12:35 AM 28.4 °F 24.6 °F 27.1 °F 95% 29.60 in 1.8 mi SE 3.5 mph - N/A   Overcast
12:55 AM 28.8 °F 25.0 °F 27.9 °F 96% 29.59 in 1.5 mi SE 3.5 mph - N/A   Overcast
1:15 AM 28.9 °F 25.2 °F 28.2 °F 97% 29.58 in 1.5 mi ESE 3.5 mph - 0.01 in   Overcast
1:35 AM 28.9 °F 22.8 °F 28.4 °F 98% 29.57 in 1.5 mi ESE 5.8 mph - 0.02 in   Overcast
1:55 AM 29.1 °F 24.1 °F 28.4 °F 97% 29.57 in 1.8 mi ESE 4.6 mph - 0.02 in   Overcast
2:15 AM 29.1 °F 23.0 °F 28.4 °F 97% 29.56 in 1.8 mi East 5.8 mph - 0.01 in   Overcast
2:35 AM 28.9 °F 25.2 °F 28.4 °F 98% 29.55 in 1.5 mi East 3.5 mph - 0.01 in   Overcast
2:55 AM 28.8 °F 23.7 °F 28.2 °F 98% 29.55 in 1.5 mi East 4.6 mph - 0.03 in   Overcast
3:15 AM 28.4 °F 23.3 °F 28.0 °F 99% 29.54 in 1.5 mi East 4.6 mph - 0.01 in   Overcast
3:35 AM 28.6 °F 23.5 °F 28.0 °F 98% 29.54 in 2.5 mi East 4.6 mph - 0.02 in   Overcast
3:55 AM 28.8 °F 25.0 °F 28.2 °F 98% 29.53 in 4.0 mi East 3.5 mph - 0.02 in   Overcast
4:15 AM 28.9 °F - 28.2 °F 97% 29.54 in 5.0 mi Calm Calm - N/A   Overcast
4:35 AM 28.9 °F 23.9 °F 28.2 °F 97% 29.54 in 5.0 mi NNE 4.6 mph - N/A   Overcast
4:55 AM 28.9 °F 25.2 °F 28.2 °F 97% 29.54 in 5.0 mi NNE 3.5 mph - N/A   Overcast
5:15 AM 28.8 °F 22.6 °F 28.0 °F 97% 29.54 in 4.0 mi NNE 5.8 mph - N/A   Overcast
5:35 AM 28.6 °F 22.4 °F 27.9 °F 97% 29.54 in 4.0 mi NNE 5.8 mph - N/A   Overcast
5:55 AM 28.8 °F 20.9 °F 27.9 °F 96% 29.54 in 2.5 mi NNE 8.1 mph - N/A   Overcast
6:15 AM 28.4 °F 22.2 °F 27.5 °F 96% 29.55 in 3.0 mi North 5.8 mph - N/A   Overcast
6:35 AM 28.4 °F 20.4 °F 27.5 °F 96% 29.56 in 3.0 mi North 8.1 mph - N/A   Overcast
6:55 AM 28.8 °F 20.9 °F 27.9 °F 96% 29.57 in 3.0 mi North 8.1 mph - N/A   Overcast
7:15 AM 28.8 °F 20.9 °F 27.5 °F 95% 29.58 in 4.0 mi NNW 8.1 mph - N/A   Overcast
7:35 AM 28.9 °F 20.4 °F 27.5 °F 94% 29.59 in 2.5 mi North 9.2 mph - N/A   Overcast
7:55 AM 28.9 °F 19.2 °F 27.5 °F 94% 29.60 in 2.0 mi NNW 11.5 mph - N/A Snow Light Snow
8:15 AM 28.4 °F 18.0 °F 26.4 °F 92% 29.62 in 2.5 mi North 12.7 mph 18.4 mph N/A Snow Light Snow
8:35 AM 28.0 °F 17.5 °F 25.7 °F 91% 29.62 in 2.0 mi North 12.7 mph 17.3 mph N/A Snow Light Snow
8:55 AM 27.9 °F 16.3 °F 25.5 °F 91% 29.63 in 2.5 mi North 15.0 mph 19.6 mph N/A Snow Light Snow
9:15 AM 27.1 °F 14.9 °F 24.6 °F 90% 29.64 in 1.5 mi NNW 16.1 mph - N/A Snow Light Snow
9:35 AM 26.6 °F 16.2 °F 24.6 °F 92% 29.65 in 0.8 mi NNW 11.5 mph 18.4 mph N/A Snow Light Snow
9:55 AM 27.0 °F 15.2 °F 24.4 °F 90% 29.66 in 1.2 mi NNW 15.0 mph 23.0 mph N/A Snow Light Snow
10:15 AM 27.3 °F 17.1 °F 24.4 °F 89% 29.67 in 1.5 mi NNW 11.5 mph 18.4 mph N/A   Overcast
10:35 AM 27.5 °F 18.0 °F 24.1 °F 87% 29.68 in 2.0 mi NW 10.4 mph 18.4 mph N/A   Overcast
10:55 AM 28.0 °F 20.0 °F 24.6 °F 87% 29.69 in 3.0 mi NW 8.1 mph - N/A   Overcast
11:15 AM 28.4 °F 19.7 °F 24.8 °F 86% 29.69 in 3.0 mi NW 9.2 mph - N/A   Overcast
11:35 AM 28.4 °F 18.5 °F 23.9 °F 83% 29.70 in 4.0 mi NNW 11.5 mph 16.1 mph N/A   Overcast
11:55 AM 28.4 °F 19.7 °F 24.1 °F 84% 29.70 in 5.0 mi NW 9.2 mph - N/A   Overcast
12:15 PM 28.4 °F 20.4 °F 23.7 °F 83% 29.71 in 7.0 mi NW 8.1 mph - N/A Snow Light Snow
12:35 PM 28.8 °F 20.2 °F 23.4 °F 80% 29.71 in 10.0 mi NW 9.2 mph - N/A Snow Light Snow
12:55 PM 28.9 °F 19.8 °F 22.8 °F 78% 29.72 in 3.0 mi NW 10.4 mph 16.1 mph N/A Snow Light Snow
1:15 PM 28.4 °F 21.2 °F 23.9 °F 83% 29.73 in 2.5 mi WNW 6.9 mph - N/A Snow Light Snow
1:35 PM 28.2 °F 21.0 °F 23.9 °F 84% 29.74 in 2.0 mi NW 6.9 mph - N/A Snow Light Snow
1:55 PM 28.4 °F 19.1 °F 24.1 °F 84% 29.74 in 2.0 mi NW 10.4 mph 17.3 mph N/A Snow Light Snow
2:15 PM 29.1 °F 21.3 °F 23.4 °F 79% 29.75 in 7.0 mi WNW 8.1 mph - N/A Snow Light Snow
2:35 PM 29.5 °F 19.3 °F 23.4 °F 78% 29.76 in 5.0 mi NW 12.7 mph - N/A Snow Light Snow
2:55 PM 29.8 °F 20.9 °F 22.3 °F 73% 29.77 in 10.0 mi NW 10.4 mph 17.3 mph N/A   Overcast
3:15 PM 29.5 °F 21.1 °F 22.3 °F 75% 29.78 in 10.0 mi WNW 9.2 mph - N/A Snow Light Snow
3:35 PM 29.3 °F 20.8 °F 21.6 °F 73% 29.79 in 10.0 mi NW 9.2 mph - N/A Snow Light Snow
3:55 PM 29.3 °F 23.2 °F 21.4 °F 72% 29.80 in 10.0 mi WNW 5.8 mph - N/A Snow Light Snow
4:15 PM 29.3 °F 21.5 °F 19.9 °F 68% 29.81 in 10.0 mi NW 8.1 mph - N/A   Overcast
4:35 PM 29.3 °F 21.5 °F 19.0 °F 66% 29.82 in 10.0 mi NW 8.1 mph 16.1 mph N/A   Overcast
4:55 PM 29.1 °F 22.1 °F 18.3 °F 64% 29.83 in 10.0 mi WNW 6.9 mph - N/A   Overcast
5:15 PM 28.9 °F 25.2 °F 18.5 °F 65% 29.85 in 10.0 mi WNW 3.5 mph - N/A   Overcast
5:35 PM 28.4 °F 23.3 °F 18.7 °F 67% 29.86 in 10.0 mi WNW 4.6 mph - N/A   Overcast
5:55 PM 28.2 °F 22.0 °F 19.4 °F 70% 29.86 in 10.0 mi WNW 5.8 mph - N/A   Overcast
6:15 PM 27.5 °F 18.6 °F 20.1 °F 74% 29.88 in 10.0 mi WNW 9.2 mph 17.3 mph N/A Snow Light Snow
6:35 PM 27.0 °F 18.7 °F 20.7 °F 77% 29.88 in 10.0 mi WNW 8.1 mph - N/A   Overcast
6:55 PM 26.6 °F 16.8 °F 21.4 °F 81% 29.89 in 10.0 mi NW 10.4 mph - N/A Snow Light Snow
7:15 PM 25.7 °F 15.7 °F 21.7 °F 85% 29.90 in 4.0 mi NNW 10.4 mph - N/A Snow Light Snow
7:35 PM 25.0 °F 13.1 °F 18.0 °F 75% 29.91 in 10.0 mi North 13.8 mph 19.6 mph N/A   Overcast
7:55 PM 24.1 °F 13.1 °F 16.7 °F 73% 29.93 in 10.0 mi NNW 11.5 mph 19.6 mph N/A   Overcast
8:15 PM 23.7 °F 12.1 °F 16.7 °F 75% 29.93 in 10.0 mi North 12.7 mph - N/A   Overcast
8:35 PM 23.0 °F 10.6 °F 15.4 °F 73% 29.94 in 10.0 mi NNW 13.8 mph 18.4 mph N/A   Overcast
8:55 PM 22.1 °F 10.0 °F 13.3 °F 69% 29.95 in 10.0 mi NNW 12.7 mph 17.3 mph N/A   Overcast
9:35 PM 20.7 °F 10.2 °F 12.0 °F 69% 29.97 in 10.0 mi NNW 9.2 mph 16.1 mph N/A   Overcast
9:36 PM 19.4 °F 8.6 °F 12.2 °F 74% 29.97 in 10.0 mi NNW 9.2 mph - N/A   Overcast
9:55 PM 19.9 °F 6.7 °F 10.9 °F 68% 29.98 in 10.0 mi NNW 13.8 mph 20.7 mph N/A   Overcast
10:15 PM 18.7 °F 7.8 °F 10.6 °F 71% 29.99 in 10.0 mi NW 9.2 mph 23.0 mph N/A   Overcast
10:35 PM 17.8 °F 4.0 °F 9.1 °F 69% 30.00 in 10.0 mi NNW 13.8 mph 21.9 mph N/A   Overcast
10:55 PM 17.1 °F 5.0 °F 6.8 °F 64% 30.01 in 10.0 mi NNW 10.4 mph 18.4 mph N/A   Overcast
11:15 PM 16.7 °F 8.3 °F 6.6 °F 65% 30.01 in 10.0 mi NNW 5.8 mph - N/A   Overcast
11:35 PM 16.2 °F 7.6 °F 6.4 °F 66% 30.01 in 10.0 mi NW 5.8 mph - N/A   Scattered Clouds
11:55 PM 15.6 °F 7.0 °F 6.4 °F 67% 30.02 in 10.0 mi WNW 5.8 mph - N/A   Scattered Clouds